Location: Bégole
(43.1574°N, 0.3291°E)
Time: 13:43:23
(UTC+00:00)

Cosmos 2228 - Pass Details

Date: 28 January 2023
Orbit: 585 x 613 km, 82.5° (Epoch: 19 March)

Event Time Altitude Azimuth Distance (km) Brightness Sun altitude
Rises 19:00:31 0° 347° (NNW) 2,828 6.5 -21.1°
Reaches altitude 10° 19:02:45 10° 344° (NNW) 1,920 5.7 -21.5°
Maximum altitude 19:06:54 59° 266° (W) 682 3.5 -22.2°
Drops below altitude 10° 19:11:02 10° 186° (S) 1,900 5.7 -23.0°
Sets 19:13:14 0° 183° (S) 2,796 6.5 -23.4°
